{"data":{"norad_id":55952,"intl_designator":"2023-037AQ","name":"STARLINK-5893","alt_names":[],"object_type":"PAYLOAD","status":"ACTIVE","operator":null,"country":"US","launch_date":"2023-03-17","launch_site_code":"AFWTR","launch_vehicle":null,"mission":null,"orbit_class":"UNKNOWN","rcs_meters":null,"size_class":null,"mass_kg":null,"dimensions":null,"purposes":["comms"],"wikipedia_slug":null,"has_3d_model":false,"image_url":null,"decayed_at":null,"tle_current":{"epoch":"2026-05-25T03:38:40.873344Z","epoch_age_seconds":68827,"freshness":"FRESH","line1":"1 55952U 23037AQ  26145.15186196  .00000079  00000+0  14410-4 0  9995","line2":"2 55952  70.0002  71.7843 0003098 269.1990  90.8814 14.98332515175928","mean_motion":14.98332515,"eccentricity":0.0003098,"inclination_deg":70.0002,"raan_deg":71.7843,"arg_perigee_deg":269.199,"mean_anomaly_deg":90.8814,"bstar":1.441e-5,"rev_number":17592,"period_min":96.10683780696,"perigee_km":569.89494617709,"apogee_km":574.20128087343,"semimajor_km":6950.1851135253,"source":"CELESTRAK","updated_at":"2026-05-25T13:38:17.918551Z"}}}